Details From SBBR - Brasilia Presidente Juscelino Kubitsch
To SBGO - Santo Genoveva
Flight Number -
Tags Routegen Generated
Created
Modified
Stats Distance 88 nm / 163 km
Max Altitude 0 ft / 0 m
Waypoints 2
Social Downloads 2
Likes 0
Share VATSIM

Download

Looking for another format? Having issues loading an existing format? Contact us
Advertisement - Login to hide

Notes

Generated

Route

SBBR SBGO

ID Type Via Altitude Latitude Longitude Leg Dist Tot Dist Heading (true) Name
O SBBR APT - 0 ft / 0 m -15.86350˚ -47.92758˚ - 0 nm - -
O SBGO APT - 0 ft / 0 m -16.62634˚ -49.23081˚ 88 nm 88 nm 238° / 239° -

Altitude Profile

Advertisement - Login to hide

SBBR

Details ICAO SBBR (BSB)
Name Brasilia Presidente Juscelino Kubitsch
Region Brazil
Timezone America/Sao_Paulo (UTC-2.0)
Stats Elevation 3,479 ft / 1,060 m (AMSL)
Location -15.871101° -47.918626°
Runways 2
Magnetic Variation 21.550° W

METAR

SBBR 182200Z 30004KT 270V360 9999 SCT040 FEW045TCU 22/17 Q1018

Decode

TAF

TAF SBBR 181600Z 1818/1918 08008KT 9999 SCT035 FEW040TCU TX27/1819Z TN17/1907Z FM181900 09008KT 9999 VCTS SCT035 FEW040CB FM182200 09007KT 9999 NSW FEW030 FM191100 07010KT 9999 SCT025 RMK PDF

Decode

Departure Runways

ID Width Length Bearing (true) Bearing (mag) Surface Threshold Offset Overrun Length
11L 148 ft / 45 m 10,493 ft / 3,198 m 86.35° 107.90° Asphalt 0 ft / 0 m 200 ft / 61 m
11R 148 ft / 45 m 10,839 ft / 3,304 m 86.00° 107.55° Asphalt 2,635 ft / 803 m 200 ft / 61 m
29L 148 ft / 45 m 10,839 ft / 3,304 m 265.99° 287.54° Asphalt 0 ft / 0 m 200 ft / 61 m
29R 148 ft / 45 m 10,493 ft / 3,198 m 266.34° 287.89° Asphalt 0 ft / 0 m 200 ft / 61 m

SBGO

Details ICAO SBGO (GYN)
Name Santo Genoveva
Region Brazil
Timezone America/Sao_Paulo (UTC-2.0)
Stats Elevation 2,450 ft / 747 m (AMSL)
Location -16.632032° -49.220686°
Runways 1
Magnetic Variation 20.990° W

METAR

SBGO 182200Z 28002KT 9999 FEW040TCU 25/19 Q1015

Decode

TAF

TAF SBGO 181600Z 1818/1918 03009KT 9999 SCT040 FEW045TCU TX29/1819Z TN19/1908Z FM181900 04008KT 9999 VCTS SCT040 FEW045CB FM182200 09007KT 9999 NSW FEW040 FM191100 05010KT 9999 SCT020 RMK PDF

Decode

Destination Runways

ID Width Length Bearing (true) Bearing (mag) Surface Threshold Offset Overrun Length
14 148 ft / 45 m 8,208 ft / 2,502 m 120.42° 141.41° Asphalt 0 ft / 0 m 0 ft / 0 m
32 148 ft / 45 m 8,208 ft / 2,502 m 300.41° 321.40° Asphalt 980 ft / 299 m 0 ft / 0 m

Popular Alternatives